EW6030 Weather Reports


time (UTC)temp
C
wind
direction
speed
KPH
gust
KPH
rain 1hr
cm
rain 24hr
cm
rain mn
cm
humidity
%
barometer
mb
20260906113005 16 189 0.0 0.0 0.00 0.00 0.00 72 1015.9
20260906111616 16 189 0.0 0.0 0.00 0.00 0.00 72 1015.4
20260906110058 16 189 0.0 0.0 0.00 0.00 0.00 72 1014.8
20260906104556 16 189 0.0 0.0 0.00 0.00 0.00 72 1014.9
20260906103055 17 189 0.0 0.0 0.00 0.00 0.00 72 1014.9
20260906101554 17 189 0.0 0.0 0.00 0.00 0.00 72 1014.9
20260906100100 17 189 0.0 0.0 0.00 0.00 0.00 72 1014.8
20260906094554 17 189 0.0 0.0 0.00 0.00 0.00 72 1014.8
20260906093053 17 189 0.0 0.0 0.00 0.00 0.00 72 1015.0
20260906091550 17 189 0.0 0.0 0.00 0.00 0.00 72 1014.8
20260906090049 17 189 0.0 0.0 0.00 0.00 0.00 72 1014.9
20260906084554 17 189 0.0 0.0 0.00 0.00 0.00 72 1014.6
20260906083047 17 189 0.0 0.0 0.00 0.00 0.00 72 1014.8
20260906081546 17 189 0.0 0.0 0.00 0.00 0.00 72 1014.7
20260906080053 17 189 0.0 0.0 0.00 0.00 0.00 72 1014.5
20260906074549 18 189 0.0 0.0 0.00 0.00 0.00 72 1014.5
20260906073043 18 189 0.0 0.0 0.00 0.00 0.00 72 1014.5
20260906071541 18 189 0.0 0.0 0.00 0.00 0.00 72 1014.5
20260906070041 18 189 0.0 0.0 0.00 0.00 0.00 72 1014.6
20260906064540 18 189 0.0 0.0 0.00 0.00 0.00 72 1014.9
20260906063044 18 189 0.0 0.0 0.00 0.00 0.00 72 1014.8
20260906061539 18 189 0.0 0.0 0.00 0.00 0.00 72 1014.9
20260906060037 18 189 0.0 0.0 0.00 0.00 0.00 72 1014.9
20260906054551 18 189 0.0 0.0 0.00 0.00 0.00 72 1014.6
20260906053034 19 189 0.0 0.0 0.00 0.00 0.00 73 1014.6
20260906051535 19 189 0.0 0.0 0.00 0.00 0.00 73 1014.7
20260906050038 19 189 0.0 0.0 0.00 0.00 0.00 73 1014.8
20260906044530 19 189 0.0 0.0 0.00 0.00 0.00 73 1014.5
20260906043028 20 189 0.0 0.0 0.00 0.00 0.00 74 1014.4
20260906041525 20 189 0.0 0.0 0.00 0.00 0.00 74 1014.2
20260906040021 20 189 0.0 0.0 0.00 0.00 0.00 75 1014.0
20260906034521 20 189 0.0 0.0 0.00 0.00 0.03 75 1013.7
20260906033017 21 189 0.0 0.0 0.00 0.00 0.03 75 1013.7
20260906031547 21 189 0.0 0.0 0.00 0.00 0.03 76 1013.7
20260906030014 21 189 0.0 0.0 0.00 0.00 0.03 76 1013.5
20260906024534 21 189 0.0 0.0 0.00 0.00 0.03 76 1013.4
20260906023010 21 189 0.0 0.0 0.00 0.00 0.03 77 1013.2
20260906021508 22 189 0.0 0.0 0.00 0.00 0.03 77 1013.0
20260906020007 22 189 0.0 0.0 0.00 0.00 0.03 77 1012.7
20260906014515 22 186 0.0 0.0 0.00 0.00 0.03 77 1012.5
20260906013007 23 132 0.0 0.0 0.00 0.00 0.03 77 1012.3
20260906011506 23 180 0.0 0.0 0.00 0.00 0.03 77 1012.3
20260906010008 23 180 0.0 0.0 0.00 0.00 0.03 77 1012.3
20260906004505 23 180 0.0 0.0 0.00 0.00 0.03 78 1012.3
20260906003006 24 170 0.0 0.0 0.00 0.00 0.03 77 1012.1
20260906001503 24 181 1.6 0.0 0.00 0.00 0.03 77 1012.3
20260906000007 25 183 0.0 0.0 0.00 0.00 0.03 77 1012.1
20260905234502 25 180 0.0 0.0 0.00 0.00 0.03 76 1012.3
20260905233002 25 183 0.0 0.0 0.00 0.00 0.03 75 1012.2
20260905231502 26 176 0.0 0.0 0.00 0.00 0.03 75 1012.2
20260905230100 26 174 1.6 0.0 0.00 0.00 0.03 72 1012.3
20260905224603 26 186 0.0 0.0 0.00 0.00 0.03 73 1012.2
20260905223100 26 181 0.0 0.0 0.00 0.00 0.03 72 1012.1
20260905221558 27 179 1.6 0.0 0.00 0.00 0.03 72 1011.9
20260905220058 27 180 1.6 0.0 0.00 0.00 0.03 71 1011.7
20260905214558 27 180 1.6 0.0 0.00 0.00 0.03 72 1011.9
20260905213101 27 176 1.6 0.0 0.00 0.00 0.03 72 1011.9
20260905211608 27 175 1.6 0.0 0.00 0.00 0.03 74 1012.0
20260905204558 26 178 1.6 0.0 0.00 0.00 0.03 73 1012.0
20260905203054 26 166 1.6 0.0 0.00 0.00 0.03 75 1011.8
20260905201556 26 178 1.6 0.0 0.00 0.00 0.03 76 1011.7
20260905200101 26 189 1.6 0.0 0.00 0.00 0.03 76 1012.1
20260905194547 26 187 0.0 0.0 0.00 0.00 0.03 77 1012.1
20260905193046 25 175 0.0 0.0 0.00 0.00 0.03 76 1012.2
20260905191546 25 181 0.0 0.0 0.00 0.00 0.03 76 1012.3
20260905190045 25 176 1.6 0.0 0.00 0.00 0.03 76 1012.4
20260905184543 25 178 0.0 0.0 0.00 0.00 0.03 77 1012.4
20260905183044 25 174 0.0 0.0 0.00 0.00 0.03 77 1012.5
20260905181541 25 174 1.6 0.0 0.00 0.00 0.03 78 1012.5
20260905180039 25 174 1.6 0.0 0.00 0.00 0.03 78 1012.6
20260905174539 25 174 1.6 0.0 0.00 0.00 0.03 78 1012.6
20260905173053 24 173 0.0 0.0 0.00 0.00 0.03 78 1012.6
20260905171538 23 173 0.0 0.0 0.00 0.00 0.03 77 1012.7
20260905170034 23 173 0.0 0.0 0.00 0.00 0.03 76 1012.6
20260905164533 23 173 0.0 0.0 0.00 0.00 0.03 76 1012.8
20260905163032 23 173 0.0 0.0 0.00 0.00 0.03 75 1012.9
20260905161532 23 173 0.0 0.0 0.00 0.00 0.00 75 1012.8
20260905160034 22 173 0.0 0.0 0.00 0.00 0.00 74 1012.8
20260905154534 22 173 0.0 0.0 0.00 0.00 0.00 74 1012.8
20260905153029 22 173 0.0 0.0 0.00 0.00 0.00 74 1012.8
20260905151528 22 173 0.0 0.0 0.00 0.00 0.00 74 1012.7
20260905150027 22 173 0.0 0.0 0.00 0.00 0.00 74 1012.5
20260905144525 22 172 0.0 0.0 0.00 0.00 0.00 74 1012.2
20260905143029 22 166 0.0 0.0 0.00 0.00 0.00 73 1012.1
20260905141527 22 181 0.0 0.0 0.00 0.00 0.00 72 1011.8
20260905140021 22 182 0.0 0.0 0.00 0.00 0.00 72 1011.8
20260905134519 22 187 1.6 0.0 0.00 0.00 0.00 71 1011.4
20260905133019 22 176 0.0 0.0 0.00 0.00 0.00 71 1011.3
20260905131521 22 177 0.0 0.0 0.00 0.00 0.00 71 1011.4
20260905130016 22 177 0.0 0.0 0.00 0.00 0.00 71 1011.3
20260905124526 21 177 1.6 0.0 0.00 0.00 0.00 71 1011.3
20260905123016 21 177 1.6 0.0 0.00 0.00 0.00 71 1011.3
20260905121513 21 177 1.6 0.0 0.00 0.00 0.00 71 1011.1
20260905120011 21 177 0.0 0.0 0.00 0.00 0.00 71 1010.9
20260905114510 21 176 1.6 0.0 0.00 0.00 0.00 71 1010.7